Terug naar catalogus

FENGYUN 1C DEB

ActiefSSO
NORAD 29866·DEBRIS·🇨🇳 China

Gelanceerd May 10, 1999 vanaf Taiyuan Satellite Launch Center

Loading…

Volgende Passages (komende 24 uur)

TLE

VersSource: Space-Track

Epoch: Sep 14, 2026, 11:04 UTC

1 29866U 99025FL  26257.46137659  .00001620  00000-0  23538-3 0  9992
2 29866  98.0625 242.5184 0193292  64.6205  84.6855 14.65381078 43633

Volg FENGYUN 1C DEB in realtime met AllMySat

Download on the App Store